Location: Street
(51.1247°N, 2.7429°W)
Time: 04:57:13
(UTC+01:00)

X-37B - Pass Details

Date: 06 August 2021
Orbit: 381 x 393 km, 45.0° (Epoch: 29 August)

Event Time Altitude Azimuth Distance (km) Brightness Sun altitude
Exits shadow 04:29:08 16° 212° (SSW) 1,104 2.3 -10.3°
Maximum altitude 04:30:46 23° 170° (S) 856 2.0 -10.1°
Drops below altitude 10° 04:33:21 10° 114° (ESE) 1,398 3.7 -9.8°
Sets 04:35:39 0° 100° (E) 2,252 5.0 -9.6°
